Wetbulb
73.37 73.49 69.64 64.72 55.12 54.82 51.89 53.84 58.01 57.82 58.97 61.46 62.88 60.95 59.38 60.76 57.81 51.87 64.76 65.71 66.70 67.63 68.55 71.53 72.08 71.42 72.72 73.87 74.40 75.52 76.31 76.44 76.29 76.85 76.86 76.50 76.50 76.75 76.80 76.61 76.57 76.52 76.79 76.57 76.76 76.32 76.37 76.48 76.48
68.65 70.15 67.08 60.79 51.47 48.59 51.52 58.03 56.69 59.25 60.84 61.79 61.78 61.28 60.07 58.06 63.19 62.98 62.95 66.61 67.52 67.81 69.33 71.51 73.16 72.75 73.28 74.74 75.49 75.50 75.91 75.94 76.29 76.72 76.52 76.61 76.54 76.38 76.59 76.63 76.61 76.70 76.75 77.07 76.88 76.84 76.70 76.71 76.58
69.53 70.83 61.53 56.71 52.75 47.03 50.81 57.50 58.77 61.05 62.26 60.61 59.23 62.05 60.84 58.83 63.41 63.38 64.82 67.01 67.84 68.97 70.16 72.05 73.51 74.18 73.61 75.35 75.65 75.05 75.66 76.20 76.25 76.47 76.48 76.42 76.46 76.32 76.38 76.65 76.62 76.81 76.70 77.05 76.80 76.80 76.68 76.41 76.01
70.35 64.81 63.68 55.00 53.87 56.81 56.56 58.65 61.12 58.69 60.70 61.34 60.15 57.20 62.22 64.57 62.47 63.62 66.62 67.25 68.03 70.03 71.79 74.00 75.02 74.76 75.54 73.72 71.84 72.16 74.81 76.25 76.18 76.21 76.26 75.81 75.86 76.60 76.31 76.61 76.86 76.69 76.07 76.01 75.85 75.96 76.12 75.72 75.37
68.66 62.42 54.33 53.17 55.10 57.11 59.82 61.52 61.31 58.97 59.11 59.07 59.36 56.18 58.41 63.65 64.86 65.83 66.01 68.00 68.30 69.39 72.42 73.94 75.53 75.48 75.92 76.07 76.11 75.93 75.47 75.92 76.06 75.72 75.83 75.85 76.06 76.19 76.43 76.43 76.07 76.13 76.24 76.42 75.52 75.24 75.13 75.19 75.02
60.91 61.92 54.37 52.31 54.79 58.63 60.85 62.04 61.24 58.82 59.68 59.60 58.22 58.31 58.74 63.32 63.59 65.19 67.40 68.21 69.67 70.24 72.51 73.46 75.32 75.78 75.82 75.99 75.90 75.88 75.77 75.44 75.65 75.66 75.28 75.88 76.09 76.15 76.36 76.77 75.58 75.33 74.99 74.86 74.63 74.08 73.83 73.72 73.63
59.62 57.63 55.08 54.90 55.99 57.73 59.34 62.99 58.56 58.60 58.76 58.94 61.55 57.76 59.34 60.89 64.67 67.59 68.68 69.52 71.07 72.40 72.21 72.66 72.80 74.45 76.20 76.22 75.95 75.92 75.61 75.91 75.79 75.92 75.66 75.66 76.35 76.46 76.05 76.18 76.02 75.77 75.27 75.19 75.27 75.13 74.82 74.58 74.24
62.78 59.16 54.84 56.40 55.82 56.37 61.39 61.67 62.23 60.34 59.84 64.02 64.23 57.41 56.30 62.55 67.24 68.51 69.72 69.84 70.58 71.63 72.06 71.77 71.53 72.39 72.63 73.20 76.13 76.20 76.09 75.67 75.70 75.90 75.61 75.56 75.74 75.74 75.66 75.95 75.90 75.60 75.44 75.52 75.51 75.84 76.04 76.26 75.84
64.71 55.74 52.37 55.00 57.04 58.52 63.01 60.43 63.72 65.10 61.54 63.29 64.55 62.62 62.67 66.43 67.89 67.34 67.74 68.82 69.52 70.73 71.33 71.60 71.43 71.67 71.85 72.43 74.60 75.70 76.06 75.62 76.04 75.46 75.84 74.18 70.98 72.20 73.82 74.51 75.31 75.11 75.13 75.27 75.33 75.33 75.90 76.01 76.02
59.26 54.57 55.13 59.90 60.77 59.48 62.24 61.81 61.60 61.17 60.64 61.63 62.64 64.67 66.37 66.82 66.33 65.75 66.21 66.68 67.62 68.29 69.98 70.70 71.35 70.95 71.50 74.18 72.50 72.49 73.25 72.74 72.52 72.04 71.89 71.53 70.21 70.30 72.98 73.70 75.29 75.71 75.85 75.94 76.21 76.35 76.38 75.85 72.79
60.37 55.39 59.11 60.43 62.29 62.15 61.83 62.62 62.55 60.67 58.56 61.39 60.98 63.52 65.51 65.41 65.09 65.47 65.72 66.90 67.31 69.47 69.71 70.13 69.82 69.16 69.92 71.74 71.43 71.46 71.66 71.29 70.97 70.06 69.22 70.07 71.04 70.09 70.93 70.66 71.25 71.46 73.62 71.90 72.79 72.02 72.59 72.67 72.44
58.15 61.18 60.28 62.21 62.10 62.24 61.58 63.84 60.37 61.51 61.61 64.54 64.62 65.49 65.54 64.32 64.06 64.94 65.92 66.27 67.38 68.79 68.60 69.32 69.48 68.71 69.04 70.50 70.64 70.89 70.65 70.65 69.39 65.54 68.20 68.05 68.10 68.40 68.56 68.30 68.27 69.28 69.82 69.29 69.28 69.54 69.91 70.13 70.58
58.90 61.15 62.78 62.42 62.22 62.81 63.27 62.14 61.86 61.70 63.87 65.80 65.76 66.02 65.00 64.83 64.59 65.55 66.82 66.77 66.46 67.28 66.65 67.73 69.11 68.26 68.93 69.89 69.40 69.55 70.07 70.74 70.30 69.31 68.95 67.34 67.59 66.76 68.71 69.21 69.96 70.76 71.24 70.86 70.26 70.24 70.51 70.01 69.95
62.11 62.56 61.88 61.95 61.22 62.33 61.05 60.70 62.92 62.07 64.59 64.52 64.70 64.66 65.12 64.72 64.68 65.33 66.42 65.83 64.65 64.57 64.68 66.51 68.62 68.40 68.21 68.49 68.78 68.51 68.70 69.45 68.87 67.31 69.27 69.16 69.18 69.55 69.21 68.74 69.06 68.71 69.32 68.60 68.62 68.46 69.58 69.82 69.88
63.50 60.24 61.39 61.21 60.87 60.46 62.25 59.32 59.39 62.20 62.97 62.97 63.22 63.33 64.04 63.98 65.84 65.30 66.61 65.80 64.65 64.47 65.14 66.80 68.44 68.39 67.21 67.48 67.76 67.21 68.19 69.01 67.96 64.24 67.90 68.51 70.56 68.86 66.99 66.10 65.94 67.75 67.79 68.45 69.08 70.24 70.87 69.46 67.47
60.31 60.38 54.28 59.44 60.20 62.15 61.16 55.04 60.69 64.07 61.66 61.55 62.37 62.47 63.33 63.13 65.36 66.40 66.76 66.21 64.90 66.81 66.06 67.01 69.23 68.30 66.62 65.64 66.70 67.61 66.97 68.22 68.35 65.69 66.87 70.48 70.54 68.75 67.23 65.54 64.83 67.30 68.02 69.19 68.90 69.14 68.70 68.52 67.13
56.49 50.51 53.67 56.55 61.44 60.60 59.15 55.69 60.21 63.66 63.20 60.08 60.80 62.20 62.36 63.43 65.01 66.06 66.61 66.20 66.42 67.51 66.47 66.64 67.56 68.10 66.21 67.19 68.18 67.11 67.15 69.03 69.58 69.81 69.50 71.84 71.15 68.47 65.76 64.57 64.43 65.94 68.52 68.81 68.79 68.35 67.34 66.87 67.27
51.58 52.49 54.34 54.20 58.13 59.81 56.08 55.96 59.79 62.20 62.00 60.94 61.42 61.30 60.90 62.18 63.87 66.33 66.50 67.15 68.46 68.17 67.78 67.28 68.47 67.89 67.46 68.50 67.77 67.63 68.47 68.17 68.56 70.24 71.46 71.31 71.07 68.72 65.05 64.76 64.43 65.25 67.55 67.66 68.81 67.14 67.73 67.05 66.65
55.83 55.01 51.81 55.92 59.52 58.13 55.96 54.99 58.66 61.08 61.26 60.47 59.71 60.98 61.16 61.39 63.30 66.88 67.24 68.51 68.67 68.76 67.97 67.96 67.57 66.99 68.05 67.73 65.54 65.23 66.34 67.10 68.80 70.84 71.05 71.30 71.30 68.90 65.20 63.95 64.79 66.70 66.10 67.70 68.42 68.33 65.91 65.76 66.74
55.95 52.24 50.83 54.94 58.48 57.20 56.18 55.47 57.90 59.30 59.49 60.97 61.35 59.87 60.64 62.83 63.11 65.10 67.04 67.79 68.18 68.12 67.62 68.24 67.55 67.69 68.30 67.83 67.61 66.01 66.00 68.52 68.89 68.62 68.30 71.79 70.55 69.85 66.56 64.60 64.74 66.65 66.03 66.16 68.06 68.17 64.76 64.92 65.49
52.79 50.02 50.48 50.68 55.73 58.70 55.48 51.87 55.61 59.93 61.15 61.76 61.94 62.72 62.53 62.30 62.09 64.34 66.03 67.06 67.74 67.57 67.52 68.13 67.69 67.98 68.93 68.81 69.19 68.42 69.16 69.55 69.02 69.11 67.72 69.42 71.97 70.72 68.61 66.67 63.27 66.31 64.88 64.10 64.48 65.71 65.18 62.05 62.67
49.91 55.27 54.54 54.86 52.29 46.59 53.46 42.66 50.84 55.80 57.95 59.23 60.81 60.99 63.04 62.70 63.53 64.83 65.78 66.61 67.16 67.48 68.65 68.67 67.89 68.27 69.77 69.34 67.82 67.25 66.63 66.47 67.99 68.32 69.75 69.41 71.08 69.61 68.47 65.73 65.96 67.79 66.50 63.50 66.13 69.21 66.34 62.79 60.33
48.00 56.37 54.56 55.49 50.32 46.83 48.77 45.90 47.89 54.02 55.73 57.75 59.71 60.54 63.36 62.35 63.24 64.92 65.94 67.02 67.23 68.48 68.59 68.59 68.97 68.85 68.71 68.59 68.36 66.53 66.96 67.35 67.95 68.31 69.14 68.72 70.00 69.78 69.79 68.54 67.33 68.90 68.99 68.70 69.34 70.89 66.76 66.23 64.67
54.85 51.89 46.55 48.10 46.81 41.32 44.03 46.27 45.71 50.60 54.28 56.51 59.20 60.04 63.07 63.38 63.91 64.77 66.59 67.20 66.88 68.81 68.59 68.71 69.11 68.79 68.94 68.57 69.10 68.10 67.43 67.10 66.66 67.14 68.83 69.07 69.55 70.30 70.19 70.00 68.06 69.15 69.73 70.77 71.73 71.28 69.70 69.60 67.26
45.51 40.79 34.05 34.89 39.65 39.33 45.82 45.43 47.42 53.88 57.27 57.91 58.32 60.89 63.21 63.76 62.92 63.71 64.92 65.44 66.43 67.35 68.24 68.61 68.85 68.48 69.07 68.62 68.63 68.98 68.18 67.22 66.80 67.37 68.31 68.60 69.26 69.81 70.72 70.21 69.99 69.85 71.23 71.46 71.21 70.48 69.56 70.10 69.48
40.85 39.04 35.49 32.21 33.74 37.46 46.10 41.59 46.45 55.66 57.41 59.73 61.13 60.85 62.49 62.96 62.91 62.89 64.86 65.79 66.40 67.43 68.47 68.95 68.57 68.75 68.98 68.99 68.63 68.87 68.63 66.77 65.77 67.63 68.67 69.27 69.74 70.35 71.19 71.22 71.16 71.67 71.77 71.37 71.59 71.02 70.52 70.76 70.35
42.04 42.50 44.44 40.60 37.20 37.08 40.53 46.98 52.17 54.77 56.55 58.55 60.08 60.70 60.92 63.29 64.50 63.64 63.20 65.37 66.11 67.01 68.23 68.80 68.71 68.84 69.11 69.26 69.11 68.71 68.14 67.34 65.84 68.05 69.52 70.08 69.85 70.65 70.80 71.50 70.77 69.03 71.54 71.87 71.13 70.91 70.51 70.55 69.82
47.49 49.05 40.80 39.55 33.71 32.25 39.00 43.61 43.87 49.43 54.41 57.14 59.21 59.49 60.72 63.68 64.22 65.12 65.36 64.30 66.83 67.72 68.86 69.28 69.54 69.05 69.58 69.56 69.46 69.85 69.12 68.91 68.76 69.36 69.96 70.50 69.72 70.08 69.67 68.23 68.19 67.91 67.97 70.84 71.03 70.73 70.46 70.28 70.07
44.83 42.12 42.29 42.26 39.50 35.53 34.93 39.47 50.80 53.22 55.40 54.88 57.03 58.94 60.76 64.05 65.69 64.96 65.69 66.60 66.51 67.93 69.37 69.16 69.50 69.28 69.27 69.87 69.86 69.66 70.19 69.88 69.80 70.04 70.16 70.86 70.14 70.00 69.23 68.19 67.93 68.96 69.96 71.46 70.97 70.45 70.48 70.18 69.94
48.31 43.16 41.29 37.65 37.21 40.05 39.15 40.25 54.45 56.89 56.78 56.39 57.14 58.19 60.83 64.11 64.63 65.14 65.25 64.70 66.16 67.23 68.11 68.82 69.69 69.60 69.63 69.84 69.68 70.08 70.44 70.21 69.94 70.36 69.69 70.30 69.67 70.19 69.78 68.42 69.45 70.33 70.69 71.43 71.11 70.66 71.17 70.24 70.21
MSLP
1009.63 1009.78 1010.08 1010.66 1011.33 1010.57 1010.03 1009.91 1009.33 1009.45 1009.73 1010.04 1010.26 1011.02 1012.27 1013.00 1013.48 1014.59 1014.14 1014.48 1014.71 1015.06 1015.04 1014.96 1014.96 1015.04 1015.03 1014.96 1014.90 1014.87 1014.74 1014.80 1014.92 1014.88 1015.09 1015.33 1015.53 1015.59 1015.66 1015.91 1015.98 1016.02 1016.09 1016.26 1016.34 1016.46 1016.62 1016.72 1016.91
1009.60 1009.93 1010.23 1010.61 1010.92 1010.56 1010.08 1009.57 1009.63 1009.76 1010.18 1010.26 1010.63 1011.39 1012.24 1013.18 1013.71 1014.43 1014.71 1014.86 1014.90 1015.13 1015.29 1015.27 1015.21 1015.35 1015.28 1015.40 1015.45 1015.50 1015.08 1015.05 1015.30 1015.28 1015.50 1015.65 1015.80 1015.84 1015.94 1016.09 1016.23 1016.28 1016.36 1016.50 1016.68 1016.75 1016.82 1017.11 1017.23
1009.46 1009.63 1010.32 1010.70 1010.87 1010.55 1010.04 1009.67 1009.67 1009.91 1009.90 1010.17 1011.04 1011.57 1012.52 1013.67 1014.18 1014.41 1014.45 1014.75 1014.99 1015.20 1015.52 1015.41 1015.35 1015.46 1015.61 1015.65 1015.66 1015.77 1015.44 1015.42 1015.51 1015.67 1015.79 1015.88 1015.98 1016.15 1016.21 1016.33 1016.46 1016.54 1016.73 1016.78 1016.98 1017.13 1017.22 1017.29 1017.43
1009.40 1010.12 1010.63 1010.68 1010.43 1009.84 1009.75 1009.67 1009.76 1010.02 1010.06 1010.50 1011.26 1012.36 1013.23 1013.50 1013.99 1014.23 1014.58 1014.77 1015.25 1015.34 1015.46 1015.60 1015.63 1015.51 1015.54 1015.56 1015.53 1015.78 1015.89 1015.62 1015.73 1015.79 1015.97 1016.14 1016.29 1016.27 1016.38 1016.51 1016.71 1016.87 1017.06 1017.21 1017.32 1017.45 1017.48 1017.60 1017.68
1009.78 1010.42 1011.06 1010.97 1010.28 1009.75 1009.55 1009.36 1009.74 1009.99 1010.54 1011.19 1011.54 1012.98 1013.81 1014.01 1013.92 1014.36 1014.70 1015.12 1015.37 1015.53 1015.48 1015.49 1015.59 1015.71 1015.62 1015.62 1015.59 1016.01 1016.04 1016.01 1016.08 1016.28 1016.46 1016.45 1016.60 1016.63 1016.65 1016.74 1016.98 1017.11 1017.32 1017.52 1017.64 1017.71 1017.84 1017.93 1018.02
1010.34 1011.21 1011.75 1011.45 1010.60 1009.91 1009.74 1009.37 1009.67 1010.47 1010.88 1011.61 1012.28 1012.95 1014.15 1014.17 1014.24 1014.74 1015.01 1015.23 1015.32 1015.72 1015.81 1015.85 1015.76 1015.68 1015.76 1015.88 1016.19 1016.33 1016.32 1016.35 1016.43 1016.67 1016.72 1016.77 1016.81 1016.92 1017.07 1017.04 1017.25 1017.27 1017.56 1017.78 1017.82 1018.01 1018.13 1018.22 1018.24
1010.73 1011.77 1012.78 1011.92 1010.98 1010.33 1009.85 1009.73 1010.01 1010.66 1011.12 1011.60 1012.19 1013.28 1014.35 1014.60 1014.72 1014.93 1015.31 1015.59 1015.59 1015.83 1016.09 1016.02 1016.01 1015.90 1015.98 1016.08 1016.35 1016.48 1016.65 1016.72 1016.82 1016.84 1017.00 1017.06 1017.16 1017.22 1017.39 1017.41 1017.49 1017.55 1017.81 1017.95 1017.99 1018.15 1018.25 1018.26 1018.33
1011.62 1011.98 1012.90 1012.24 1011.29 1010.77 1010.19 1010.08 1010.23 1010.56 1011.13 1011.50 1012.01 1013.24 1014.13 1014.42 1014.76 1015.32 1015.78 1015.98 1016.07 1016.18 1016.17 1016.18 1016.14 1016.24 1016.39 1016.47 1016.66 1016.61 1016.77 1016.88 1016.92 1017.09 1017.26 1017.30 1017.30 1017.37 1017.54 1017.76 1017.80 1017.80 1017.97 1018.07 1018.10 1018.14 1018.19 1018.15 1018.17
1011.88 1012.54 1013.43 1012.98 1011.74 1011.60 1010.41 1010.25 1010.57 1010.46 1010.93 1011.46 1011.86 1012.56 1013.04 1014.16 1015.04 1015.68 1016.21 1016.52 1016.65 1016.73 1016.53 1016.35 1016.44 1016.53 1016.74 1016.79 1016.67 1016.79 1016.93 1017.08 1017.12 1017.41 1017.37 1017.54 1017.72 1017.79 1017.77 1017.94 1017.93 1017.99 1018.09 1018.12 1018.11 1018.13 1018.17 1018.12 1018.12
1011.89 1012.76 1013.05 1012.64 1012.40 1012.13 1011.46 1011.00 1010.78 1010.71 1011.44 1011.88 1012.25 1013.03 1013.60 1014.44 1015.35 1015.84 1016.19 1016.45 1016.75 1016.88 1016.66 1016.64 1016.58 1016.86 1016.98 1016.86 1017.00 1017.16 1017.20 1017.46 1017.47 1017.64 1017.78 1017.91 1017.92 1017.88 1018.04 1018.16 1018.01 1018.06 1018.15 1018.17 1018.03 1018.00 1018.09 1018.09 1018.13
1012.21 1012.32 1012.63 1012.96 1012.65 1012.74 1011.72 1010.81 1010.63 1010.91 1011.64 1011.52 1012.15 1013.09 1013.86 1014.81 1015.63 1015.95 1016.31 1016.40 1016.58 1016.74 1016.91 1016.88 1016.98 1017.13 1017.11 1017.06 1017.24 1017.31 1017.57 1017.66 1017.73 1017.89 1018.01 1018.14 1018.01 1018.10 1018.22 1018.20 1018.23 1018.30 1018.24 1018.24 1018.09 1018.13 1018.20 1018.08 1017.97
1011.92 1011.87 1012.77 1012.84 1012.99 1012.74 1012.01 1010.92 1010.93 1011.06 1011.17 1011.44 1011.86 1012.61 1013.75 1014.77 1015.42 1015.78 1016.10 1016.26 1016.59 1016.74 1016.97 1017.05 1017.03 1016.94 1017.14 1017.38 1017.50 1017.76 1017.86 1017.78 1017.95 1018.06 1018.19 1018.13 1018.27 1018.46 1018.52 1018.50 1018.36 1018.37 1018.33 1018.22 1018.13 1018.17 1018.02 1017.70 1017.61
1011.74 1011.80 1012.31 1012.66 1012.71 1012.84 1012.59 1011.68 1011.18 1011.21 1011.16 1011.84 1012.38 1013.14 1013.76 1014.79 1015.39 1015.77 1016.13 1016.43 1016.75 1016.93 1016.99 1017.10 1017.01 1017.18 1017.35 1017.44 1017.53 1017.67 1017.64 1017.78 1017.94 1018.17 1018.16 1018.24 1018.34 1018.38 1018.49 1018.42 1018.33 1018.26 1018.21 1017.93 1017.76 1017.73 1017.52 1017.60 1017.31
1011.42 1011.69 1012.27 1012.72 1012.85 1013.03 1012.72 1011.77 1011.13 1011.05 1010.98 1011.86 1012.63 1013.31 1013.93 1014.59 1015.01 1015.55 1015.79 1016.22 1016.76 1016.86 1017.13 1016.96 1017.25 1017.22 1017.10 1017.49 1017.63 1017.60 1017.54 1017.80 1018.10 1018.13 1018.27 1018.16 1018.23 1018.30 1018.46 1018.44 1018.37 1018.46 1018.12 1017.73 1017.62 1017.53 1017.52 1017.55 1017.07
1011.43 1011.77 1012.37 1012.58 1012.68 1013.05 1012.46 1011.88 1011.03 1010.73 1011.13 1011.89 1012.72 1013.35 1013.89 1014.18 1014.63 1014.73 1015.08 1015.66 1016.31 1016.65 1016.77 1016.92 1017.02 1016.99 1017.20 1017.34 1017.58 1017.70 1017.82 1017.93 1017.97 1018.10 1018.24 1018.22 1018.16 1018.23 1018.42 1018.55 1018.58 1018.51 1018.19 1017.86 1017.62 1017.42 1017.42 1017.20 1017.17
1011.59 1011.88 1012.41 1012.49 1012.82 1012.10 1012.35 1012.44 1011.89 1011.50 1011.68 1012.07 1012.54 1013.05 1013.32 1013.54 1013.90 1014.47 1014.86 1015.28 1015.79 1016.55 1016.73 1016.81 1016.86 1017.01 1017.18 1017.37 1017.53 1017.81 1017.78 1017.65 1017.76 1018.29 1018.37 1018.29 1018.29 1018.11 1018.24 1018.37 1018.64 1018.48 1018.16 1017.83 1017.82 1017.83 1017.67 1017.38 1017.07
1011.74 1011.62 1012.13 1012.35 1012.10 1012.04 1012.01 1013.03 1012.81 1012.32 1011.96 1012.25 1012.48 1012.75 1013.02 1013.42 1013.95 1014.26 1014.54 1014.99 1015.52 1016.08 1016.35 1016.54 1016.70 1017.12 1017.26 1017.52 1017.47 1017.60 1017.58 1017.69 1017.81 1018.11 1018.43 1018.28 1018.32 1018.38 1018.41 1018.46 1018.69 1018.32 1018.25 1018.16 1018.20 1018.20 1017.76 1017.59 1017.53
1011.91 1011.80 1011.73 1011.63 1011.68 1012.09 1012.18 1012.43 1012.78 1012.43 1012.50 1012.19 1012.32 1012.54 1012.77 1013.19 1013.71 1013.92 1014.38 1014.91 1015.43 1015.79 1016.04 1016.45 1016.55 1016.96 1017.36 1017.40 1017.67 1017.98 1017.76 1017.71 1018.00 1017.99 1018.19 1018.03 1018.35 1018.38 1018.41 1018.50 1018.57 1018.51 1018.58 1018.67 1018.45 1018.19 1018.14 1018.14 1018.09
1010.44 1011.09 1011.25 1011.52 1011.59 1011.97 1012.07 1012.39 1012.44 1012.55 1012.83 1012.42 1012.28 1012.44 1012.87 1012.95 1013.26 1013.75 1014.54 1014.81 1015.16 1015.62 1015.94 1016.23 1016.50 1016.87 1017.53 1017.89 1018.04 1018.25 1018.09 1017.85 1018.04 1017.96 1018.00 1017.98 1018.26 1018.32 1018.22 1018.62 1018.70 1018.54 1018.63 1018.80 1018.72 1018.37 1018.50 1018.68 1018.65
1010.00 1010.69 1011.20 1011.59 1011.60 1012.15 1012.47 1012.50 1012.48 1012.70 1012.58 1012.76 1012.29 1012.33 1012.55 1012.81 1013.13 1013.62 1014.23 1014.59 1014.82 1015.13 1015.60 1016.13 1016.47 1016.57 1017.05 1017.21 1017.43 1017.57 1017.77 1017.66 1017.80 1017.85 1018.10 1017.84 1018.06 1018.16 1018.30 1018.42 1018.72 1018.41 1018.65 1018.72 1018.59 1018.59 1019.02 1019.13 1019.03
1009.73 1010.16 1010.72 1011.16 1011.85 1012.39 1012.69 1013.02 1012.76 1012.48 1012.59 1012.58 1012.41 1012.21 1012.29 1012.42 1012.89 1013.43 1014.01 1014.19 1014.53 1015.04 1015.34 1015.85 1016.15 1016.23 1016.51 1017.01 1017.32 1017.50 1017.67 1017.80 1017.99 1017.97 1018.28 1017.97 1017.90 1018.04 1018.10 1018.41 1018.56 1018.32 1018.44 1018.70 1018.53 1018.56 1018.82 1019.17 1019.29
1009.44 1009.07 1010.20 1011.33 1012.18 1013.06 1013.39 1013.93 1013.07 1012.79 1012.71 1012.66 1012.61 1012.41 1012.39 1012.40 1012.73 1013.15 1013.54 1013.89 1014.29 1014.39 1014.89 1015.46 1015.88 1016.16 1016.37 1016.74 1016.91 1017.14 1017.44 1017.87 1017.76 1017.93 1017.94 1018.00 1017.92 1017.98 1018.10 1018.25 1018.50 1018.40 1018.44 1018.56 1018.49 1018.58 1018.56 1018.79 1019.64
1007.91 1008.32 1010.01 1011.57 1012.85 1013.55 1014.07 1014.37 1013.40 1013.02 1012.61 1012.38 1012.40 1012.63 1012.35 1012.08 1012.37 1012.76 1012.86 1013.22 1013.61 1014.14 1014.48 1015.06 1015.58 1015.93 1016.20 1016.38 1016.56 1016.92 1017.37 1017.58 1017.59 1017.62 1017.81 1017.98 1017.87 1017.91 1018.10 1018.22 1018.49 1018.57 1018.52 1018.44 1018.37 1018.27 1018.40 1018.85 1019.18
1007.58 1009.43 1011.31 1012.98 1013.99 1014.99 1014.47 1014.60 1013.91 1013.51 1012.94 1012.40 1012.24 1012.15 1012.03 1011.89 1012.00 1012.13 1012.50 1012.94 1013.50 1013.94 1014.47 1014.81 1015.40 1015.73 1016.03 1016.14 1016.40 1016.57 1017.01 1017.40 1017.66 1017.76 1017.98 1018.08 1018.11 1018.21 1018.14 1018.14 1018.26 1018.29 1018.45 1018.42 1018.19 1018.21 1018.42 1018.71 1018.79
1008.27 1010.61 1012.80 1014.51 1015.27 1015.28 1014.70 1014.76 1013.63 1013.07 1012.53 1012.40 1012.10 1011.68 1011.51 1011.84 1011.97 1011.94 1012.33 1012.54 1013.21 1013.73 1014.19 1014.65 1015.15 1015.60 1015.95 1016.05 1016.15 1016.45 1016.70 1017.01 1017.28 1017.50 1017.58 1017.85 1017.99 1017.97 1017.76 1017.85 1017.98 1018.01 1017.98 1018.05 1018.01 1018.28 1018.38 1018.63 1018.75
1008.78 1010.22 1012.33 1014.12 1015.58 1015.37 1014.95 1014.19 1012.71 1012.51 1012.58 1012.39 1011.95 1011.73 1011.64 1011.82 1012.33 1012.26 1012.00 1012.03 1012.61 1013.11 1013.78 1014.21 1014.68 1015.18 1015.69 1015.89 1016.00 1016.10 1016.38 1016.82 1016.91 1017.03 1017.14 1017.28 1017.38 1017.41 1017.30 1017.52 1017.65 1017.67 1017.77 1017.75 1017.90 1018.20 1018.35 1018.49 1018.46
1009.33 1010.85 1012.15 1014.14 1015.78 1015.89 1014.93 1013.73 1012.73 1012.76 1013.02 1012.91 1012.35 1012.03 1012.30 1011.96 1011.81 1012.00 1012.03 1011.99 1011.88 1012.49 1012.88 1013.47 1014.01 1014.51 1014.98 1015.35 1015.77 1016.09 1016.10 1016.49 1016.74 1016.87 1017.01 1017.04 1017.04 1017.18 1017.26 1017.16 1017.47 1017.49 1017.56 1017.52 1017.70 1018.16 1018.35 1018.34 1018.28
1009.07 1010.96 1012.62 1014.29 1016.01 1016.40 1015.54 1014.64 1013.73 1013.44 1013.51 1013.23 1013.11 1012.40 1012.31 1012.22 1011.78 1011.75 1011.53 1011.60 1011.38 1011.40 1012.09 1012.78 1013.39 1013.76 1014.10 1014.76 1015.23 1015.64 1015.87 1015.97 1016.22 1016.57 1016.75 1016.90 1016.93 1017.03 1017.27 1017.26 1017.40 1017.43 1017.30 1017.33 1017.63 1017.89 1018.10 1018.23 1018.19
1010.46 1011.56 1013.21 1014.64 1015.71 1016.27 1015.98 1014.91 1013.25 1013.22 1013.17 1012.93 1012.60 1012.59 1012.24 1011.90 1011.50 1011.57 1011.61 1011.34 1010.96 1010.92 1011.33 1011.90 1012.79 1013.24 1013.84 1014.26 1014.80 1015.20 1015.51 1015.72 1015.89 1016.10 1016.24 1016.38 1016.59 1016.91 1017.24 1017.24 1017.42 1017.39 1017.39 1017.42 1017.57 1017.77 1017.92 1018.07 1018.05
1010.60 1011.64 1012.94 1014.86 1016.05 1016.17 1015.84 1014.34 1013.30 1013.03 1012.69 1012.54 1012.30 1011.22 1011.27 1011.88 1011.69 1011.80 1011.85 1011.65 1010.97 1010.87 1010.98 1011.54 1012.26 1012.82 1013.00 1013.46 1014.12 1014.64 1015.11 1015.51 1015.75 1015.84 1015.99 1016.17 1016.38 1016.69 1016.93 1017.11 1017.20 1017.25 1017.27 1017.27 1017.35 1017.53 1017.67 1017.82 1018.04
Wind_Speed
6 6 3 3 3 2 2 3 2 3 3 5 5 5 10 8 2 3 1 6 7 4 3 3 7 7 6 6 9 7 10 10 11 11 13 12 10 11 12 12 11 12 13 13 13 13 13 13 13
2 5 2 2 4 3 2 4 4 5 7 6 9 7 7 5 5 6 7 3 8 5 3 4 6 5 4 7 10 8 9 7 9 10 11 11 9 11 10 12 11 11 11 13 12 12 12 11 12
3 2 3 4 2 3 3 3 9 9 4 5 5 7 4 4 6 7 5 10 6 4 4 4 6 8 7 9 12 7 7 8 9 10 9 9 9 9 9 10 10 11 10 11 11 10 10 10 10
1 3 3 4 3 2 3 6 10 9 8 8 10 8 5 5 5 7 11 9 7 5 5 6 8 7 9 12 12 8 3 8 9 9 9 9 8 9 8 9 10 11 9 9 8 8 8 8 7
2 3 5 3 5 4 7 11 5 4 5 10 5 6 5 3 10 13 11 9 6 5 4 6 11 10 10 10 10 9 5 8 8 7 7 7 8 8 7 8 8 8 6 7 7 5 5 5 4
4 2 5 4 5 5 7 8 7 11 10 13 11 8 3 7 14 10 8 7 6 5 4 5 10 10 10 10 10 8 6 6 7 7 7 6 8 8 9 9 8 7 5 4 5 4 4 4 4
5 5 3 5 4 3 5 6 9 11 12 7 9 5 3 5 7 6 6 6 5 5 4 4 3 8 11 10 9 9 8 7 5 6 7 6 7 8 7 6 6 6 5 5 6 6 5 5 4
3 4 5 3 3 8 9 6 14 11 3 12 9 6 6 6 8 9 6 6 5 4 4 5 3 4 4 5 10 9 8 6 6 5 6 5 5 5 4 4 3 4 3 3 4 5 6 6 5
2 5 2 5 1 8 6 7 7 6 15 4 3 6 9 13 12 8 7 5 4 3 3 4 5 5 3 3 4 7 6 6 6 5 6 5 2 3 3 1 2 2 3 3 3 4 5 6 7
4 3 8 3 6 3 8 6 6 8 11 3 9 11 14 14 12 11 10 9 6 5 5 4 4 5 4 3 3 3 3 3 3 2 3 2 0 1 1 3 4 5 6 7 7 7 7 7 3
2 5 5 4 4 7 7 7 5 15 8 14 17 16 16 14 11 11 7 8 9 7 3 4 4 3 2 3 2 1 1 2 1 2 2 2 0 2 3 2 2 2 4 3 5 4 3 4 3
3 4 9 5 2 5 8 3 5 9 4 13 18 20 18 15 11 11 10 10 8 9 5 5 6 4 4 2 3 2 1 2 2 1 4 2 0 2 2 2 3 2 2 4 3 2 4 5 6
3 2 8 9 4 5 8 7 6 8 10 13 15 17 18 13 10 8 7 5 6 7 5 5 4 4 5 5 3 3 3 2 2 3 3 2 3 2 1 2 3 2 3 3 3 4 3 4 5
1 4 6 9 3 6 8 7 10 11 16 17 17 15 14 12 13 8 8 7 7 6 7 7 6 5 5 4 3 3 2 3 3 2 1 2 2 2 3 2 1 3 1 1 1 3 4 3 3
3 8 7 8 9 6 10 6 3 15 19 19 17 14 13 14 16 16 15 11 8 7 9 9 7 6 5 5 4 3 3 3 4 3 1 3 4 5 5 3 2 1 1 2 3 4 1 3 1
2 3 4 7 9 5 5 3 6 3 13 17 18 14 14 19 20 15 14 13 9 5 9 8 8 6 5 3 3 2 3 3 3 4 3 5 5 5 5 4 4 2 2 3 4 3 3 3 3
5 4 1 4 13 0 3 3 5 9 4 9 12 16 13 11 10 13 14 14 10 9 8 7 6 7 6 4 3 2 4 3 3 4 4 6 4 2 2 3 2 2 2 3 1 1 2 2 3
4 4 3 6 7 6 5 6 12 9 10 6 10 10 9 13 13 15 13 12 11 9 7 7 5 5 5 3 2 1 1 1 2 3 4 6 4 5 3 4 3 3 2 1 3 4 4 3 3
9 4 5 2 3 1 4 10 15 10 7 5 9 8 9 12 8 13 14 13 12 8 7 7 7 6 5 2 2 1 3 2 2 4 6 6 5 5 5 3 3 4 3 3 3 2 4 5 4
9 4 1 2 2 2 5 7 6 8 4 5 8 7 8 11 11 10 13 13 13 13 10 8 9 9 7 4 3 3 2 2 1 2 0 4 5 5 5 4 2 2 2 3 2 3 1 2 3
4 7 6 4 5 1 4 5 4 2 4 4 6 5 9 12 13 12 14 15 13 12 10 11 10 10 8 7 3 2 2 1 2 1 2 4 5 4 3 5 5 3 2 2 1 2 3 3 3
5 13 4 6 4 2 1 4 4 3 3 6 5 5 6 12 9 12 14 14 14 13 10 9 8 7 7 9 5 5 4 3 3 3 3 4 5 4 5 4 4 3 2 3 2 2 2 4 3
10 14 13 4 4 3 3 3 6 4 6 6 7 7 8 11 14 15 17 18 15 13 12 8 8 7 6 7 7 5 4 2 1 1 3 3 3 3 4 4 5 3 3 3 4 3 3 3 3
9 9 9 6 3 4 2 4 5 2 4 2 4 12 11 8 15 16 14 13 12 10 10 9 9 7 7 7 7 7 8 5 3 2 3 3 3 4 6 5 5 4 4 4 2 2 3 2 1
9 8 3 3 1 6 3 3 7 4 4 3 8 10 12 4 6 12 15 14 14 12 12 10 10 9 7 7 7 8 7 7 7 6 4 5 3 3 5 5 6 4 3 4 2 2 1 3 3
3 7 7 4 4 3 2 5 6 6 3 4 5 4 3 4 5 7 15 16 15 15 14 12 13 12 9 8 8 7 8 5 5 5 4 4 4 4 3 5 5 5 6 4 3 1 3 3 2
3 5 4 8 3 3 3 6 4 5 7 6 6 9 4 6 7 11 9 11 13 14 16 16 14 14 12 11 6 7 7 7 6 7 4 3 3 3 5 6 6 5 4 4 3 3 3 3 3
6 5 4 4 3 3 4 5 5 3 3 4 3 6 5 5 8 6 6 12 16 18 16 16 15 16 13 10 8 7 8 8 7 6 7 6 4 3 4 4 5 5 5 4 3 2 3 2 2
1 2 7 6 4 6 2 7 5 5 5 4 5 5 5 6 3 4 2 4 14 16 17 18 15 15 12 12 10 9 8 8 6 6 6 6 5 6 6 5 5 5 5 4 4 4 3 4 4
2 4 5 6 4 2 4 8 2 5 8 6 6 8 5 6 4 3 1 4 3 12 13 15 14 14 14 13 12 11 9 7 7 6 7 6 6 5 6 6 6 6 5 4 5 5 3 4 4
Wind_Direction
178 167 124 56 63 82 51 50 87 121 60 346 74 90 109 32 60 171 179 142 116 144 217 176 142 119 93 107 93 89 90 87 94 93 97 103 104 106 106 112 114 113 119 118 113 113 115 113 112
182 168 59 84 79 58 38 98 67 49 127 95 78 82 59 80 62 98 105 133 131 168 205 275 206 207 122 107 91 85 87 97 96 94 98 104 105 99 106 109 115 113 106 110 111 112 110 111 114
123 61 90 88 77 140 128 77 114 139 158 87 108 54 63 59 92 126 131 139 144 156 187 227 187 178 121 111 105 114 124 105 97 95 101 112 107 106 100 99 107 104 104 102 106 108 113 111 105
216 12 69 66 29 35 106 125 130 120 92 61 110 70 66 115 137 145 139 139 150 174 186 177 175 157 144 133 115 96 99 107 104 112 107 103 109 109 99 103 97 98 101 98 105 113 113 103 100
59 51 43 8 37 109 136 140 129 68 78 92 97 94 84 156 111 130 140 148 160 170 188 173 167 157 147 136 137 159 155 104 103 114 104 119 98 96 102 117 109 98 93 106 104 103 100 98 80
67 72 41 20 104 93 140 140 111 97 99 97 98 95 100 131 133 150 150 154 155 155 184 150 156 156 151 145 151 140 121 120 116 115 118 111 101 87 89 99 94 93 109 98 86 72 57 46 42
95 84 35 307 112 138 156 137 114 121 119 105 136 83 78 122 142 137 135 134 134 134 129 133 173 163 159 154 151 138 145 131 128 129 112 112 91 82 89 85 104 97 75 60 53 41 27 19 25
79 82 24 325 305 56 119 112 140 135 104 128 151 150 179 180 139 106 95 110 119 126 136 153 163 131 147 156 161 147 150 133 125 124 121 107 94 101 93 54 44 56 41 37 33 18 357 346 0
310 69 72 286 224 109 86 137 148 119 139 162 173 112 153 144 114 107 117 115 106 125 140 152 166 143 159 138 168 153 140 141 131 119 125 75 51 33 14 340 351 354 339 346 353 345 331 333 342
57 96 202 203 331 37 309 213 196 132 163 107 96 100 132 138 138 148 166 160 156 170 184 180 168 160 161 151 97 127 129 89 87 110 91 108 101 292 250 312 308 322 328 326 325 318 320 337 329
144 162 180 327 278 283 289 179 183 141 182 164 153 149 156 145 153 169 178 167 172 179 182 185 158 127 137 119 119 139 104 114 119 150 144 176 351 313 311 340 353 355 330 338 318 333 327 307 270
141 199 149 186 135 330 356 13 165 156 216 167 159 159 152 162 167 174 179 175 161 178 187 183 180 161 126 114 179 160 146 148 161 220 196 121 216 354 337 342 308 310 301 283 287 294 288 279 274
260 181 188 127 115 318 306 304 169 227 170 154 151 160 165 166 167 181 180 176 150 184 187 196 187 185 153 179 155 166 201 192 228 229 223 144 99 119 279 263 249 266 332 316 309 288 278 278 283
123 194 116 138 258 307 310 294 187 184 159 157 161 174 171 169 172 167 178 171 176 181 184 187 190 203 171 159 187 208 211 216 215 230 203 137 150 159 141 113 95 74 34 352 3 6 5 344 314
168 128 141 177 176 231 212 273 186 153 154 162 164 168 176 187 183 183 185 187 171 201 181 188 181 194 185 192 205 191 235 224 207 185 185 234 173 158 145 151 121 100 358 29 36 33 6 79 66
86 169 152 218 173 235 185 101 8 36 156 169 171 174 186 183 189 190 183 186 183 180 191 182 190 173 181 203 228 207 242 236 180 132 196 216 192 170 151 159 126 167 127 70 38 2 40 17 77
18 261 175 165 204 127 144 144 301 285 14 166 176 174 178 179 176 186 184 187 180 178 190 186 190 168 178 182 216 226 230 244 165 171 192 185 197 183 144 104 107 162 82 55 122 5 69 54 72
163 258 163 206 204 208 165 165 181 195 236 187 182 175 173 169 182 179 180 188 178 174 192 184 189 168 162 119 116 45 311 275 155 180 191 167 177 192 149 122 125 146 141 357 245 98 32 43 19
179 211 199 91 119 81 202 172 189 169 216 176 189 185 165 171 181 175 178 181 172 173 175 191 170 171 148 148 146 83 223 210 172 186 203 164 180 173 150 118 141 165 179 157 261 73 71 25 22
194 175 196 95 145 143 180 227 237 177 190 217 199 179 175 162 165 172 168 180 183 183 180 185 182 181 174 155 167 166 177 225 119 165 259 178 200 184 165 159 152 189 120 89 71 81 83 63 13
194 175 187 177 152 60 102 315 237 209 150 215 235 200 182 164 174 171 173 183 187 186 187 185 183 184 170 154 131 97 57 58 102 316 182 241 234 184 165 172 183 209 76 102 187 109 114 129 14
176 218 156 143 105 169 72 270 293 260 207 197 224 214 205 170 176 176 176 184 196 191 189 184 173 177 185 165 153 157 176 170 209 191 188 224 228 182 177 171 185 189 143 220 212 162 147 101 186
215 154 176 104 92 94 1 76 275 331 262 223 216 212 228 182 169 184 186 186 197 188 188 181 166 172 189 167 167 158 172 200 235 192 215 235 241 215 214 212 210 200 197 216 215 159 142 169 150
100 71 49 54 73 13 244 145 281 230 279 197 191 223 213 201 180 187 190 180 192 186 186 175 175 183 193 173 176 173 174 180 188 227 219 197 224 215 220 217 217 198 225 224 216 149 175 192 220
73 72 26 12 59 213 162 116 238 247 306 249 251 214 206 205 193 173 186 185 187 183 188 182 177 188 200 193 175 181 193 185 197 212 213 179 188 226 233 209 215 215 233 241 221 182 217 208 198
54 136 147 204 196 249 145 227 246 181 127 103 78 96 187 152 237 204 196 193 192 183 184 187 184 191 199 199 197 184 186 191 204 218 203 212 203 216 234 208 211 212 215 214 238 241 246 233 218
174 57 167 102 4 68 251 290 299 151 24 343 121 98 38 303 205 206 217 202 193 190 186 189 188 199 195 202 189 203 186 191 202 209 208 231 220 209 215 206 191 205 222 207 204 221 246 239 227
113 147 70 15 143 261 294 288 241 56 314 321 44 79 69 306 207 174 191 211 201 197 192 190 195 197 193 195 193 202 203 195 196 185 208 220 210 190 198 198 211 231 232 228 226 251 249 220 249
42 56 51 109 121 168 219 259 222 173 212 216 158 128 87 23 194 164 336 308 210 202 195 192 194 195 193 192 195 200 205 207 195 191 200 206 192 194 208 209 239 235 235 235 221 230 235 243 283
120 148 128 121 221 194 149 269 269 209 216 211 256 135 74 102 236 179 314 331 340 204 198 194 194 195 198 194 191 204 207 202 202 207 193 192 199 199 207 211 224 226 236 235 226 232 230 232 245